COSMO-SKYMED 4

Last updated on Sun Apr 12 2026 00:02:34 GMT+0000 (Coordinated Universal Time)

1 37216U 10060A 26101.54079877 .00000716 00000+0 96531-4 0 9994 2 37216 97.8888 286.1038 0001535 79.0346 281.1039 14.82146452834691
UTC large
Height (km)
Speed (km/s)
/
Latitude / Longitude
Inclination (degrees)
Orbital Period (minutes)
Azimuth
Elevation
Range (km)
Doppler Factor

Next 0 passes for location: London (51.5072 / 0.1276)

Sorry there are no passes over London.
COSMO-SKYMED 4